Flag for U.S.A. Weather past 2 weeks in Jackson, Mississippi, U.S.A.

Now
76 °F

Clear.


Feels Like: 76 °F
Forecast: 75 / 95 °F
Wind: No wind

Location: Hawkins Field

Current Time: Aug 20, 2014 at 4:10:01 AM

Latest Report: Aug 20, 2014 at 2:53 AM


Visibility: 10 mi

Pressure: 29.94 "Hg

Humidity: 88%

Dew point: 72 °F

Location of JacksonLocation

Historic Weather in Jackson — Graph

°F

Jackson temperature yesterday

Maximum temperature yesterday: 91 °F (at 1:53 PM)
Minimum temperature yesterday: 76 °F (at 4:53 AM)
Average temperature yesterday: 83 °F

Past Weeks' High & Low Weather Summary

 TemperatureHumidityPressure
High94 °F (Aug 6, 3:53 PM)94% (Aug 10, 3:00 AM)30.07 "Hg (Aug 10, 3:00 AM)
Low64 °F (Aug 14, 5:53 AM)39% (Aug 13, 2:53 PM)29.87 "Hg (Aug 19, 1:53 AM)
Average80 °F72%29.98 "Hg
* Reported Aug 5 2:53 AM — Aug 20 2:53 AM, Jackson, Weather by CustomWeather, © 2014

Note: Actual official high and low records may vary slightly from our data, if they occured in-between our weather recording intervals... More about our weather records

Advertising

Jackson weather history for previous 24 hours

 ConditionsComfort  
Time TempWeatherWind HumidityBarometerVisibility
2:53 AM
Aug 20
76 °FClear.No wind88%29.94 "Hg10 mi
1:53 AM77 °FClear.3 mph85%29.94 "Hg10 mi
12:53 AM79 °FClear.5 mph82%29.94 "Hg10 mi
11:53 PM
Aug 19
80 °FClear.3 mph79%29.95 "Hg10 mi
10:53 PM82 °FClear.3 mph77%29.94 "Hg10 mi
9:53 PM82 °FClear.No wind77%29.94 "Hg10 mi
8:53 PM83 °FClear.No wind74%29.91 "Hg10 mi
7:53 PM85 °FSunny.5 mph70%29.91 "Hg10 mi
6:53 PM87 °FSunny.7 mph63%29.92 "Hg10 mi
5:53 PM90 °FSunny.9 mph57%29.90 "Hg10 mi
4:53 PM91 °FSunny.7 mph57%29.90 "Hg10 mi
3:53 PM90 °FPassing clouds.8 mph59%29.89 "Hg10 mi
2:53 PM91 °FPassing clouds.10 mph56%29.91 "Hg10 mi
1:53 PM91 °FScattered clouds.8 mph57%29.94 "Hg10 mi
12:53 PM90 °FPartly sunny.8 mph61%29.96 "Hg10 mi
11:53 AM88 °FSunny.10 mph61%29.97 "Hg10 mi
10:53 AM87 °FSunny.10 mph67%29.98 "Hg10 mi
9:53 AM85 °FPassing clouds.9 mph75%29.97 "Hg10 mi
8:53 AM80 °FPassing clouds.7 mph85%29.97 "Hg8 mi
7:53 AM78 °FFog.7 mph90%29.96 "Hg5 mi
6:53 AM76 °FFog.5 mph91%29.94 "Hg5 mi
5:53 AM76 °FClear.No wind91%29.92 "Hg8 mi
4:53 AM76 °FClear.3 mph91%29.91 "Hg9 mi
Weather by CustomWeather, © 2014

See weather overviewHow to use our weather pages